This is the latest recevied weather packets stored in our database for station/object N7CEE. If no packets are shown the sender has not sent any weather packets the latest 10 day(s).
| Time | Temp. | Humidity | Pressure | Rain* | Wind** | Luminosity | Snow |
|---|---|---|---|---|---|---|---|
| 1777430690 | 11.67° C | 30% | 1024.7 hPa | 0 mm | - | 0 W/m² | - |
| 1777430386 | 11.11° C | 30% | 1024.4 hPa | 0 mm | - | 0 W/m² | - |
| 1777430082 | 11.67° C | 30% | 1024.2 hPa | 0 mm | - | 0 W/m² | - |
| 1777429778 | 11.67° C | 30% | 1024.4 hPa | 0 mm | - | 0 W/m² | - |
| 1777429473 | 12.22° C | 28% | 1024.2 hPa | 0 mm | - | 0 W/m² | - |
| 1777429169 | 12.22° C | 28% | 1024.4 hPa | 0 mm | - | 1 W/m² | - |
| 1777428866 | 12.78° C | 28% | 1024.1 hPa | 0 mm | - | 1 W/m² | - |
| 1777428562 | 12.78° C | 28% | 1024.1 hPa | 0 mm | - | 3 W/m² | - |
| 1777428258 | 12.78° C | 27% | 1024.1 hPa | 0 mm | - | 4 W/m² | - |
| 1777427953 | 12.78° C | 27% | 1023.9 hPa | 0 mm | - | 6 W/m² | - |
| 1777427650 | 13.33° C | 27% | 1023.9 hPa | 0 mm | - | 7 W/m² | - |
| 1777427347 | 13.33° C | 26% | 1023.7 hPa | 0 mm | - | 9 W/m² | - |
| 1777427044 | 13.33° C | 26% | 1023.7 hPa | 0 mm | - | 11 W/m² | - |
| 1777426740 | 13.33° C | 26% | 1024.2 hPa | 0 mm | - | 13 W/m² | - |
| 1777426437 | 13.89° C | 25% | 1023.9 hPa | 0 mm | - | 14 W/m² | - |
| 1777426134 | 13.89° C | 25% | 1023.9 hPa | 0 mm | - | 17 W/m² | - |
| 1777425834 | 13.89° C | 25% | 1024.1 hPa | 0 mm | - | 19 W/m² | - |
| 1777425530 | 13.89° C | 25% | 1024.1 hPa | 0 mm | - | 21 W/m² | - |
| 1777425224 | 14.44° C | 24% | 1024.1 hPa | 0 mm | - | 24 W/m² | - |
| 1777424922 | 14.44° C | 24% | 1024.1 hPa | 0 mm | - | 48 W/m² | - |
| 1777424618 | 15° C | 23% | 1024.1 hPa | 0 mm | - | 31 W/m² | - |
| 1777424313 | 15° C | 23% | 1024.1 hPa | 0 mm | - | 29 W/m² | - |
| 1777424009 | 15.56° C | 22% | 1023.9 hPa | 0 mm | - | 34 W/m² | - |
| 1777423706 | 15° C | 23% | 1024 hPa | 0 mm | - | 30 W/m² | - |
| 1777423402 | 15° C | 23% | 1024 hPa | 0 mm | - | 58 W/m² | - |
* Rain latest hour (hover to see other rain measurements)
** Current wind speed in m/s (hover to see current wind gust speed)